TimeCET,TemperatureF,Dew PointF,Humidity,Sea Level PressureIn,VisibilityMPH,Wind Direction,Wind SpeedMPH,Gust SpeedMPH,PrecipitationIn,Events,Conditions,WindDirDegrees,DateUTC
12:00 AM,59.0,42.8,55,30.36,6.2,NW,16.1,-,N/A,,Partly Cloudy,310,2012-12-27 23:00:00
12:30 AM,59.0,42.8,55,30.39,6.2,NW,23.0,-,N/A,,Partly Cloudy,310,2012-12-27 23:30:00
1:00 AM,58,45,52,30.41,37,NW,20.7,,,,Clear,320,2012-12-28 00:00:00
1:00 AM,57.2,44.6,63,30.39,6.2,NW,20.7,33.4,N/A,,Partly Cloudy,320,2012-12-28 00:00:00
1:30 AM,55.4,46.4,72,30.39,6.2,NW,12.7,-,N/A,,Mostly Cloudy,320,2012-12-28 00:30:00
2:00 AM,55.4,46.4,72,30.39,6.2,NNW,16.1,-,N/A,,Unknown,330,2012-12-28 01:00:00
2:30 AM,55.4,46.4,72,30.39,6.2,NNW,19.6,-,N/A,,Unknown,330,2012-12-28 01:30:00
3:00 AM,55.4,46.4,72,30.39,6.2,NNW,17.3,-,N/A,,Unknown,340,2012-12-28 02:00:00
3:30 AM,55.4,44.6,67,30.39,6.2,NNW,18.4,-,N/A,,Unknown,330,2012-12-28 02:30:00
4:00 AM,55.4,46.4,72,30.39,6.2,NNW,17.3,29.9,N/A,,Unknown,330,2012-12-28 03:00:00
4:30 AM,55.4,46.4,72,30.39,6.2,NW,18.4,-,N/A,,Unknown,320,2012-12-28 03:30:00
5:00 AM,55.4,44.6,67,30.39,6.2,NW,18.4,-,N/A,,Unknown,320,2012-12-28 04:00:00
5:30 AM,55.4,44.6,67,30.39,6.2,NW,18.4,-,N/A,,Partly Cloudy,320,2012-12-28 04:30:00
6:00 AM,55.4,44.6,67,30.39,6.2,NW,17.3,-,N/A,,Unknown,310,2012-12-28 05:00:00
6:30 AM,55.4,44.6,67,30.39,6.2,NW,18.4,-,N/A,,Partly Cloudy,320,2012-12-28 05:30:00
7:00 AM,56,44,55,30.42,12,NW,16.1,,,,Scattered Clouds,320,2012-12-28 06:00:00
7:00 AM,57.2,44.6,63,30.39,6.2,NW,15.0,-,N/A,,Mostly Cloudy,320,2012-12-28 06:00:00
7:30 AM,55.4,44.6,67,30.39,6.2,NW,16.1,-,N/A,,Mostly Cloudy,320,2012-12-28 06:30:00
8:00 AM,57.2,42.8,59,30.39,6.2,NW,19.6,-,N/A,,Mostly Cloudy,310,2012-12-28 07:00:00
8:22 AM,55.4,42.8,63,30.39,6.2,NW,17.3,-,N/A,,Scattered Clouds,310,2012-12-28 07:22:00
9:00 AM,55.4,44.6,67,30.42,6.2,NNW,15.0,-,N/A,,Mostly Cloudy,330,2012-12-28 08:00:00
9:30 AM,57.2,44.6,63,30.42,6.2,NNW,11.5,-,N/A,,Mostly Cloudy,330,2012-12-28 08:30:00
10:00 AM,57.2,44.6,63,30.42,6.2,WSW,6.9,-,N/A,,Mostly Cloudy,240,2012-12-28 09:00:00
10:30 AM,57.2,46.4,67,30.42,6.2,WNW,13.8,-,N/A,,Mostly Cloudy,300,2012-12-28 09:30:00
11:00 AM,57.2,46.4,67,30.45,6.2,North,9.2,-,N/A,,Mostly Cloudy,350,2012-12-28 10:00:00
11:30 AM,59.0,46.4,63,30.45,6.2,Variable,2.3,-,N/A,,Mostly Cloudy,0,2012-12-28 10:30:00
12:00 PM,59.0,46.4,63,30.45,6.2,Variable,1.2,-,N/A,,Mostly Cloudy,0,2012-12-28 11:00:00
12:30 PM,60.8,46.4,59,30.42,6.2,WNW,4.6,-,N/A,,Mostly Cloudy,290,2012-12-28 11:30:00
12:52 PM,60.8,46.4,59,30.42,6.2,NNW,4.6,-,N/A,,Mostly Cloudy,330,2012-12-28 11:52:00
1:00 PM,61,46,48,30.43,25,WNW,4.6,,,,Scattered Clouds,290,2012-12-28 12:00:00
1:30 PM,62.6,46.4,55,30.39,6.2,SW,5.8,-,N/A,,Mostly Cloudy,230,2012-12-28 12:30:00
2:30 PM,64.4,46.4,52,30.39,6.2,Variable,2.3,-,N/A,,Mostly Cloudy,0,2012-12-28 13:30:00
3:00 PM,64.4,44.6,49,30.36,6.2,Variable,2.3,-,N/A,,Scattered Clouds,0,2012-12-28 14:00:00
3:30 PM,64.4,41.0,42,30.36,6.2,East,2.3,-,N/A,,Scattered Clouds,100,2012-12-28 14:30:00
4:00 PM,62.6,44.6,52,30.36,6.2,Variable,2.3,-,N/A,,Mostly Cloudy,0,2012-12-28 15:00:00
4:30 PM,62.6,44.6,52,30.36,6.2,Variable,2.3,-,N/A,,Mostly Cloudy,0,2012-12-28 15:30:00
5:00 PM,59.0,48.2,67,30.36,6.2,SE,4.6,-,N/A,,Mostly Cloudy,130,2012-12-28 16:00:00
5:30 PM,57.2,48.2,72,30.36,6.2,Calm,Calm,-,N/A,,Scattered Clouds,0,2012-12-28 16:30:00
6:00 PM,55.4,46.4,72,30.39,6.2,Variable,2.3,-,N/A,,Scattered Clouds,0,2012-12-28 17:00:00
6:30 PM,51.8,46.4,82,30.39,6.2,North,3.5,-,N/A,,Scattered Clouds,360,2012-12-28 17:30:00
7:00 PM,51,46,77,30.39,12,NNW,2.3,,,,Scattered Clouds,330,2012-12-28 18:00:00
7:00 PM,51.8,46.4,82,30.39,6.2,Variable,2.3,-,N/A,,Scattered Clouds,0,2012-12-28 18:00:00
7:30 PM,48.2,44.6,87,30.39,6.2,West,2.3,-,N/A,,Unknown,260,2012-12-28 18:30:00
8:00 PM,51.8,44.6,76,30.36,6.2,SSW,5.8,-,N/A,,Unknown,210,2012-12-28 19:00:00
8:30 PM,46.4,42.8,87,30.36,6.2,WSW,3.5,-,N/A,,Unknown,250,2012-12-28 19:30:00
9:00 PM,46.4,42.8,87,30.36,6.2,SSW,3.5,-,N/A,,Unknown,210,2012-12-28 20:00:00
9:30 PM,44.6,41.0,87,30.36,6.2,WSW,5.8,-,N/A,,Unknown,250,2012-12-28 20:30:00
10:00 PM,44.6,42.8,93,30.36,6.2,SW,3.5,-,N/A,,Unknown,220,2012-12-28 21:00:00
10:30 PM,44.6,42.8,93,30.33,6.2,West,3.5,-,N/A,,Unknown,280,2012-12-28 21:30:00
11:00 PM,42.8,41.0,93,30.33,6.2,West,2.3,-,N/A,,Unknown,270,2012-12-28 22:00:00
11:30 PM,42.8,39.2,87,30.33,6.2,WSW,3.5,-,N/A,,Unknown,250,2012-12-28 22:30:00